Terminal Aerodrome Forecast
Issued by NWS Oklahoma City, OK

Home | Current Version | Previous Version | Text Only | Print | Product List | Glossary On
Versions: 1 2 3 4 5 6 7 8 9 10 11 12 13 14 15 16 17 18 19 20 21 22 23
000
FTUS44 KOUN 222327
TAFOUN
TAF
KOUN 222327Z 2300/2324 11007KT P6SM FEW180 SCT250
     FM231200 16009KT P6SM BKN250
     FM231800 17010G17KT P6SM SCT250
     FM232200 17010KT P6SM SCT250=

USA.gov is the U.S. government's official web portal to all federal, state and local government web resources and services.